Location: Gebenbach
(49.5378°N, 11.8735°E)
Time: 03:14:57
(UTC+00:00)

ATLAS 2AS CENTAUR R/B - Pass Details

Date: 29 October 2020
Orbit: 939 x 1273 km, 63.7° (Epoch: 23 November)

Event Time Altitude Azimuth Distance (km) Brightness Sun altitude
Rises 16:21:56 0° 306° (NW) 4,214 6.4 -5.0°
Reaches altitude 10° 16:25:11 10° 316° (NW) 3,217 5.6 -5.5°
Maximum altitude 16:32:03 33° 18° (NNE) 1,896 3.8 -6.6°
Drops below altitude 10° 16:38:30 10° 81° (E) 3,018 4.4 -7.6°
Enters shadow 16:38:50 - 82° (E) 3,115 4.4 -7.7°
